Regional Weather Roundup
Issued by NWS

Home | Current Version | Previous Version | Graphics & Text | Print | Product List | Glossary On
Versions: 1 2 3 4 5 6 7 8 9 10 11 12 13 14 15 16 17 18 19 20 21 22 23 24 25 26 27 28 29 30 31 32 33 34 35 36 37 38 39 40 41 42 43 44 45 46 47 48 49 50
000
ASUS43 KFSD 041502
RWRSD

WEATHER ROUNDUP FOR SOUTH DAKOTA
NATIONAL WEATHER SERVICE SIOUX FALLS SD
900 AM CST WED MAR 04 2015

NOTE: "FAIR" INDICATES FEW OR NO CLOUDS BELOW 12,000 FEET WITH NO
SIGNIFICANT WEATHER AND/OR OBSTRUCTIONS TO VISIBILITY.


SDZ001>005-009-010-012>017-041600-
NORTHWEST AND NORTH CENTRAL SOUTH DAKOTA

CITY           SKY/WX    TMP DP  RH WIND       PRES   REMARKS
BUFFALO          N/A      1  -6  72 NW21      30.11R WCI -21
FAITH            N/A      3  -6  66 NW18      30.21R WCI -17
MOBRIDGE       SUNNY      3  -9  57 NW22G28   30.23R WCI -19
$$

SDZ012>016-024>037-041>051-057-063-072>074-041600-
SOUTHWEST AND SOUTH CENTRAL SOUTH DAKOTA

CITY           SKY/WX    TMP DP  RH WIND       PRES   REMARKS
RAPID CTY ARPT SUNNY     10   1  67 N18       30.18R WCI  -8
PIERRE         SUNNY      7  -4  60 NW18      30.27R WCI -12
CUSTER         SUNNY      3 -13  47 NW9       29.97R WCI -12
ELLSWORTH AFB  SUNNY     10   0  65 N14       30.17R WCI  -7
PHILIP         MOSUNNY    8  -1  66 W5        30.27R WCI   0
PINE RIDGE     SUNNY      0  -7  72 NE7       30.20R WCI -13
SPEARFISH      PTSUNNY    7  -2  66 W12       30.13R WCI  -9
WINNER         FAIR       8  -5  55 NW14      30.26R WCI  -8
$$

SDZ004>011-016>023-039-040-041600-
NORTHEAST SOUTH DAKOTA

CITY           SKY/WX    TMP DP  RH WIND       PRES   REMARKS
ABERDEEN       MOSUNNY    3  -7  63 N15       30.27R WCI -16
WATERTOWN      PTSUNNY    0  -5  79 NW8       30.16R WCI -14
$$

SDZ017-020-022-023-036>040-048>070-041600-
SOUTHEAST SOUTH DAKOTA

CITY           SKY/WX    TMP DP  RH WIND       PRES   REMARKS
SIOUX FALLS    MOSUNNY    8   0  69 W14       30.20R WCI  -8
HURON          SUNNY      6  -5  60 NW26G35   30.25R WCI -16
MITCHELL       SUNNY     10  -1  61 NW28G36   30.27R WCI -12
YANKTON        SUNNY     14   3  62 NW20G25   30.28R WCI  -3
$$

ABBREVIATIONS USED IN REMARKS
   TC - TEMPERATURE IN CELSIUS
  WCI - WIND CHILL INDEX
   HX - HEAT INDEX
  VSB - VISIBILITY



USA.gov is the U.S. government's official web portal to all federal, state and local government web resources and services.